Weerspreuk van de week: Als in januari de muggen zwermen,dan kun je in maart de oren wermen.

We konden geen weer-waarchuwingen ophalen. Ga rechtstreeks naar de Meteoalarm site : www.meteoalarm.eu en controleer daar .


Onweer radar Meer informatie blitzortung!


Regen radar Meer informatie rain snow radar


Bekijk deze sites ook eens:

Awekas

Canon

Het weer actueel

Diam Telecom

FPL Automotive (TIP)

Paradigit

Over Luyksgestel

Zooplus

De Kempen, mijn omgeving

Douglas

BOL.com

Weerstation Noordbergum

Inktweb

Weerstation Hapert

Weerstation Hoogeloon

Youfone

Weerstation Son&Breugel

Weerstation Castaert

Weerstation Tilburg Reeshof

Weerstation Scheulder

Weerverwachting Samos

Samos actueel

Weerwoord (forum)

Griekenlandforum

Wolven in Nederland



ILUYKSGE3 History tables / reports. Script startWUhistory.php

Select another period ( hide this area )

Eenheden Periode Custom range Directly to
Metrisch Engels Beide
Dagelijkse Wekelijkse Maandelijkse Jaarlijkse
use both date-selectors for a custom range
previous Dag
With this date

WeatherUnderground graphs for this period ( click here ) Loading the graph can take up to a minute!


Dagelijkse Samenvatting Zaterdag Jan 29 2022
Tijd Temp. ( °C ) Dew pt. ( °C ) Wind ( km/h ) van Windvlaag ( km/h ) Luchtdruk ( hPa ) Humid.( % ) Rainrate ( cm )
Hoog6,1 5,0 21,0 WZW ( 192/499 ) 32,0 1029,5 93 -
Gemiddeld5,9 4,7 13,9 WZW #14/36 22,4 1028,5 92 -
Laag5,6 4,4 3,0   15,0 1027,4 91 -
Dagelijkse Tabular details for Zaterdag Jan 29 2022
Tijd Temp. ( °C ) Dew pt. ( °C ) Wind ( km/h ) van Windvlaag ( km/h ) Luchtdruk ( hPa ) Humid.( % ) Rainrate ( cm )
00:03 5,6 4,6 18,0 WZW 21,0 1029,5 93 -
00:08 5,6 4,6 14,0 ZW 18,0 1029,5 93 -
00:13 5,6 4,4 13,0 WZW 24,0 1029,5 92 -
00:18 5,7 4,5 18,0 Westen 19,0 1029,5 92 -
00:23 5,7 4,7 14,0 Westen 23,0 1029,5 93 -
00:28 5,7 4,5 13,0 WZW 23,0 1029,5 92 -
00:33 5,8 4,6 16,0 ZZW 21,0 1029,1 92 -
00:38 5,8 4,6 13,0 WZW 23,0 1029,1 92 -
00:43 5,8 4,6 14,0 ZW 24,0 1029,1 92 -
00:48 5,8 4,6 16,0 WZW 19,0 1028,8 92 -
00:53 5,9 4,7 18,0 WZW 23,0 1028,8 92 -
00:58 5,9 4,7 8,0 WZW 18,0 1028,8 92 -
01:03 5,9 4,7 14,0 WZW 26,0 1028,8 92 -
01:09 5,9 4,7 10,0 ZW 19,0 1028,8 92 -
01:14 5,9 4,7 13,0 ZW 23,0 1028,8 92 -
01:19 6,0 4,8 14,0 WZW 26,0 1028,5 92 -
01:24 6,1 4,7 14,0 WZW 26,0 1028,5 91 -
01:29 6,1 4,7 16,0 Westen 29,0 1028,5 91 -
01:34 6,1 4,7 13,0 ZW 23,0 1028,5 91 -
01:39 6,1 4,7 20,0 Westen 23,0 1028,5 91 -
01:44 6,1 4,7 11,0 WZW 19,0 1028,5 91 -
01:49 6,1 4,7 11,0 WZW 18,0 1028,5 91 -
01:54 6,1 4,7 16,0 WZW 26,0 1028,5 91 -
01:59 6,1 4,7 14,0 ZZW 21,0 1028,5 91 -
02:04 6,1 4,7 14,0 ZW 23,0 1028,1 91 -
02:09 6,1 4,7 13,0 ZZW 29,0 1028,1 91 -
02:14 6,1 4,7 16,0 ZW 26,0 1028,1 91 -
02:19 6,1 4,7 3,0 Westen 24,0 1027,8 91 -
02:24 6,1 4,7 13,0 ZW 19,0 1027,8 91 -
02:29 6,1 4,7 20,0 ZW 19,0 1027,8 91 -
02:34 6,1 4,9 13,0 ZW 19,0 1027,8 92 -
02:39 6,0 4,8 11,0 Zuiden 21,0 1027,8 92 -
02:44 6,0 4,8 11,0 ZW 21,0 1027,8 92 -
02:49 6,0 5,0 21,0 ZW 23,0 1027,4 93 -
02:54 6,0 5,0 13,0 WZW 32,0 1027,4 93 -
02:59 5,9 4,9 10,0 Westen 15,0 1027,4 93 -
Dagelijkse Samenvatting Zaterdag Jan 29 2022
Tijd Temp. ( °C ) Dew pt. ( °C ) Wind ( km/h ) van Windvlaag ( km/h ) Luchtdruk ( hPa ) Humid.( % ) Rainrate ( cm )
Hoog6,1 5,0 21,0 WZW ( 192/499 ) 32,0 1029,5 93 -
Gemiddeld5,9 4,7 13,9 WZW #14/36 22,4 1028,5 92 -
Laag5,6 4,4 3,0   15,0 1027,4 91 -
Dagelijkse Tabular details for Zaterdag Jan 29 2022
Tijd Temp. ( °C ) Dew pt. ( °C ) Wind ( km/h ) van Windvlaag ( km/h ) Luchtdruk ( hPa ) Humid.( % ) Rainrate ( cm )
00:03 5,6 4,6 18,0 WZW 21,0 1029,5 93 -
00:08 5,6 4,6 14,0 ZW 18,0 1029,5 93 -
00:13 5,6 4,4 13,0 WZW 24,0 1029,5 92 -
00:18 5,7 4,5 18,0 Westen 19,0 1029,5 92 -
00:23 5,7 4,7 14,0 Westen 23,0 1029,5 93 -
00:28 5,7 4,5 13,0 WZW 23,0 1029,5 92 -
00:33 5,8 4,6 16,0 ZZW 21,0 1029,1 92 -
00:38 5,8 4,6 13,0 WZW 23,0 1029,1 92 -
00:43 5,8 4,6 14,0 ZW 24,0 1029,1 92 -
00:48 5,8 4,6 16,0 WZW 19,0 1028,8 92 -
00:53 5,9 4,7 18,0 WZW 23,0 1028,8 92 -
00:58 5,9 4,7 8,0 WZW 18,0 1028,8 92 -
01:03 5,9 4,7 14,0 WZW 26,0 1028,8 92 -
01:09 5,9 4,7 10,0 ZW 19,0 1028,8 92 -
01:14 5,9 4,7 13,0 ZW 23,0 1028,8 92 -
01:19 6,0 4,8 14,0 WZW 26,0 1028,5 92 -
01:24 6,1 4,7 14,0 WZW 26,0 1028,5 91 -
01:29 6,1 4,7 16,0 Westen 29,0 1028,5 91 -
01:34 6,1 4,7 13,0 ZW 23,0 1028,5 91 -
01:39 6,1 4,7 20,0 Westen 23,0 1028,5 91 -
01:44 6,1 4,7 11,0 WZW 19,0 1028,5 91 -
01:49 6,1 4,7 11,0 WZW 18,0 1028,5 91 -
01:54 6,1 4,7 16,0 WZW 26,0 1028,5 91 -
01:59 6,1 4,7 14,0 ZZW 21,0 1028,5 91 -
02:04 6,1 4,7 14,0 ZW 23,0 1028,1 91 -
02:09 6,1 4,7 13,0 ZZW 29,0 1028,1 91 -
02:14 6,1 4,7 16,0 ZW 26,0 1028,1 91 -
02:19 6,1 4,7 3,0 Westen 24,0 1027,8 91 -
02:24 6,1 4,7 13,0 ZW 19,0 1027,8 91 -
02:29 6,1 4,7 20,0 ZW 19,0 1027,8 91 -
02:34 6,1 4,9 13,0 ZW 19,0 1027,8 92 -
02:39 6,0 4,8 11,0 Zuiden 21,0 1027,8 92 -
02:44 6,0 4,8 11,0 ZW 21,0 1027,8 92 -
02:49 6,0 5,0 21,0 ZW 23,0 1027,4 93 -
02:54 6,0 5,0 13,0 WZW 32,0 1027,4 93 -
02:59 5,9 4,9 10,0 Westen 15,0 1027,4 93 -

Download your copy of this data-set  here

Our weather-data as stored at Weather Underground. Script ontwikkeld door Jim McMurry. Rewritten for template use Leuven-Template

U vindt ons ook hier:

Het Weer Aktueel

UK Metoffice

European Weather Network

Weather Underground

AWEKAS